When you browse on this site, cookies collect data to enhance your experience and personalize the content and advertising you see.
Visit our Privacy Policy to learn more. By continuing to use the site, you agree to this use of cookies and data.
  • En España
  • Lista de países
  • Para 7 días
  • Temperatura del agua
  • Mapa Satelital
  • El tiempo en el mapa
  • Informadores
  • user-avatar
    Iniciar sesión

    Tiempo cada hora Tarin Kowt

    Hoy, 17 Noviembre, Sábado

    Tiempo Temperatura Precipitaciones Viento Presión Humedad
    00:00 +10°C° 0 mm 1 mps 619 mmHg 33%
    01:00 +9°C° 0 mm 1 mps 618 mmHg 34%
    02:00 +9°C° 0 mm 1 mps 618 mmHg 35%
    03:00 +8°C° 0 mm 0 mps 618 mmHg 37%
    04:00 +7°C° 0 mm 0 mps 618 mmHg 38%
    05:00 +8°C° 0 mm 0 mps 618 mmHg 38%
    06:00 +8°C° 0 mm 0 mps 618 mmHg 37%
    07:00 +8°C° 0 mm 0 mps 618 mmHg 37%
    08:00 +11°C° 0 mm 1 mps 619 mmHg 33%
    09:00 +13°C° 0 mm 1 mps 619 mmHg 30%
    10:00 +15°C° 0 mm 1 mps 620 mmHg 26%
    11:00 +16°C° 0 mm 1 mps 620 mmHg 25%
    12:00 +17°C° 0 mm 2 mps 619 mmHg 25%
    13:00 +18°C° 0 mm 3 mps 619 mmHg 25%
    14:00 +17°C° 0 mm 3 mps 619 mmHg 26%
    15:00 +17°C° 0 mm 3 mps 618 mmHg 28%
    16:00 +17°C° 0 mm 3 mps 618 mmHg 29%
    17:00 +14°C° 0 mm 3 mps 618 mmHg 33%
    18:00 +14°C° 0 mm 2 mps 618 mmHg 36%
    19:00 +13°C° 0 mm 1 mps 617 mmHg 39%
    20:00 +12°C° 0 mm 1 mps 617 mmHg 41%
    21:00 +12°C° 0 mm 1 mps 617 mmHg 43%
    22:00 +11°C° 0 mm 1 mps 617 mmHg 45%
    23:00 +11°C° 0 mm 1 mps 617 mmHg 46%

    Mañana, 18 Noviembre, Domingo

    Tiempo Temperatura Precipitaciones Viento Presión Humedad
    00:00 +10°C° 0 mm 1 mps 616 mmHg 48%
    01:00 +10°C° 0 mm 1 mps 616 mmHg 50%
    02:00 +9°C° 0 mm 1 mps 616 mmHg 52%
    03:00 +9°C° 0 mm 1 mps 616 mmHg 53%
    04:00 +9°C° 0 mm 1 mps 616 mmHg 55%
    05:00 +9°C° 0 mm 1 mps 616 mmHg 54%
    06:00 +9°C° 0 mm 1 mps 616 mmHg 53%
    07:00 +9°C° 0 mm 1 mps 616 mmHg 52%
    08:00 +11°C° 0 mm 1 mps 617 mmHg 47%
    09:00 +13°C° 0 mm 1 mps 618 mmHg 42%
    10:00 +14°C° 0 mm 0 mps 619 mmHg 37%
    11:00 +15°C° 0 mm 1 mps 619 mmHg 35%
    12:00 +16°C° 0 mm 2 mps 618 mmHg 32%
    13:00 +17°C° 0 mm 3 mps 618 mmHg 30%
    14:00 +17°C° 0 mm 3 mps 618 mmHg 29%
    15:00 +16°C° 0 mm 3 mps 618 mmHg 29%
    16:00 +16°C° 0 mm 3 mps 618 mmHg 28%
    17:00 +15°C° 0 mm 2 mps 618 mmHg 31%
    18:00 +13°C° 0 mm 2 mps 618 mmHg 34%
    19:00 +12°C° 0 mm 1 mps 618 mmHg 36%
    20:00 +11°C° 0 mm 1 mps 617 mmHg 38%
    21:00 +11°C° 0 mm 1 mps 617 mmHg 40%
    22:00 +10°C° 0 mm 1 mps 617 mmHg 41%
    23:00 +9°C° 0 mm 1 mps 617 mmHg 43%

    Pasado mañana, 19 Noviembre, Lunes

    Tiempo Temperatura Precipitaciones Viento Presión Humedad
    00:00 +8°C° 0 mm 0 mps 617 mmHg 44%
    01:00 +7°C° 0 mm 0 mps 617 mmHg 46%
    02:00 +7°C° 0 mm 0 mps 616 mmHg 47%
    03:00 +6°C° 0 mm 0 mps 616 mmHg 49%
    04:00 +6°C° 0 mm 0 mps 616 mmHg 50%
    05:00 +6°C° 0 mm 0 mps 617 mmHg 49%
    06:00 +6°C° 0 mm 0 mps 617 mmHg 48%
    07:00 +8°C° 0 mm 1 mps 618 mmHg 47%
    08:00 +9°C° 0 mm 1 mps 619 mmHg 42%
    09:00 +11°C° 0 mm 1 mps 620 mmHg 37%
    10:00 +13°C° 0 mm 1 mps 621 mmHg 31%
    11:00 +14°C° 0 mm 1 mps 621 mmHg 29%
    12:00 +15°C° 0 mm 2 mps 621 mmHg 26%
    13:00 +15°C° 0 mm 2 mps 620 mmHg 24%
    14:00 +15°C° 0 mm 2 mps 620 mmHg 24%
    15:00 +15°C° 0 mm 2 mps 620 mmHg 24%
    16:00 +15°C° 0 mm 2 mps 620 mmHg 24%
    17:00 +13°C° 0 mm 1 mps 620 mmHg 28%
    18:00 +12°C° 0 mm 1 mps 620 mmHg 31%
    19:00 +9°C° 0 mm 0 mps 620 mmHg 34%
    20:00 +9°C° 0 mm 0 mps 619 mmHg 36%
    21:00 +8°C° 0 mm 0 mps 619 mmHg 37%
    22:00 +8°C° 0 mm 0 mps 619 mmHg 38%
    23:00 +8°C° 0 mm 1 mps 619 mmHg 38%

    20 Noviembre, Martes

    Tiempo Temperatura Precipitaciones Viento Presión Humedad
    00:00 +8°C° 0 mm 1 mps 619 mmHg 39%
    01:00 +8°C° 0 mm 1 mps 619 mmHg 39%
    02:00 +8°C° 0 mm 1 mps 618 mmHg 39%
    03:00 +7°C° 0 mm 1 mps 618 mmHg 38%
    04:00 +7°C° 0 mm 1 mps 618 mmHg 38%
    05:00 +7°C° 0 mm 1 mps 619 mmHg 36%
    06:00 +8°C° 0 mm 1 mps 619 mmHg 35%
    07:00 +8°C° 0 mm 1 mps 619 mmHg 33%
    08:00 +10°C° 0 mm 1 mps 620 mmHg 30%
    09:00 +12°C° 0 mm 1 mps 621 mmHg 26%
    10:00 +13°C° 0 mm 0 mps 622 mmHg 22%
    11:00 +15°C° 0 mm 1 mps 622 mmHg 21%
    12:00 +15°C° 0 mm 1 mps 621 mmHg 20%
    13:00 +16°C° 0 mm 1 mps 621 mmHg 19%
    14:00 +16°C° 0 mm 1 mps 621 mmHg 20%
    15:00 +16°C° 0 mm 1 mps 621 mmHg 21%
    16:00 +15°C° 0 mm 1 mps 620 mmHg 21%
    17:00 +14°C° 0 mm 1 mps 620 mmHg 24%
    18:00 +13°C° 0 mm 1 mps 620 mmHg 26%
    19:00 +11°C° 0 mm 1 mps 620 mmHg 28%
    20:00 +11°C° 0 mm 1 mps 620 mmHg 28%
    21:00 +11°C° 0 mm 1 mps 620 mmHg 28%
    22:00 +11°C° 0 mm 1 mps 620 mmHg 28%
    23:00 +11°C° 0 mm 1 mps 619 mmHg 28%

    21 Noviembre, Miércoles

    Tiempo Temperatura Precipitaciones Viento Presión Humedad
    00:00 +10°C° 0 mm 2 mps 619 mmHg 28%
    01:00 +10°C° 0 mm 2 mps 619 mmHg 28%
    02:00 +9°C° 0 mm 2 mps 619 mmHg 30%
    03:00 +9°C° 0 mm 2 mps 618 mmHg 31%
    04:00 +9°C° 0 mm 2 mps 618 mmHg 33%
    05:00 +9°C° 0.1 mm 2 mps 618 mmHg 34%
    06:00 +9°C° 0.1 mm 2 mps 619 mmHg 35%
    07:00 +9°C° 0.1 mm 2 mps 619 mmHg 36%
    08:00 +10°C° 0.2 mm 2 mps 619 mmHg 38%
    09:00 +10°C° 0.2 mm 2 mps 619 mmHg 40%
    10:00 +12°C° 0.2 mm 2 mps 620 mmHg 43%
    11:00 +12°C° 0.3 mm 2 mps 619 mmHg 45%
    12:00 +11°C° 0.3 mm 3 mps 618 mmHg 47%
    13:00 +12°C° 0.3 mm 3 mps 618 mmHg 49%
    14:00 +13°C° 0.2 mm 2 mps 618 mmHg 51%
    15:00 +13°C° 0.2 mm 2 mps 617 mmHg 52%
    16:00 +13°C° 0.2 mm 2 mps 617 mmHg 53%
    17:00 +12°C° 0.3 mm 2 mps 617 mmHg 57%
    18:00 +10°C° 0.3 mm 2 mps 617 mmHg 61%
    19:00 +10°C° 0.3 mm 2 mps 617 mmHg 64%
    20:00 +10°C° 0.3 mm 2 mps 617 mmHg 65%
    21:00 +10°C° 0.3 mm 2 mps 617 mmHg 66%
    22:00 +10°C° 0.3 mm 2 mps 617 mmHg 67%
    23:00 +9°C° 0.6 mm 2 mps 617 mmHg 69%

    22 Noviembre, Jueves

    Tiempo Temperatura Precipitaciones Viento Presión Humedad
    00:00 +9°C° 0.6 mm 2 mps 616 mmHg 72%
    01:00 +10°C° 0.6 mm 1 mps 616 mmHg 74%
    02:00 +9°C° 0.7 mm 1 mps 616 mmHg 76%
    03:00 +9°C° 0.7 mm 1 mps 616 mmHg 78%
    04:00 +9°C° 0.7 mm 1 mps 616 mmHg 79%
    05:00 +9°C° 0.1 mm 1 mps 616 mmHg 79%
    06:00 +9°C° 0.1 mm 1 mps 617 mmHg 78%
    07:00 +9°C° 0.1 mm 1 mps 617 mmHg 77%
    08:00 +10°C° 0 mm 1 mps 618 mmHg 72%
    09:00 +11°C° 0 mm 1 mps 619 mmHg 66%
    10:00 +12°C° 0 mm 1 mps 619 mmHg 61%
    11:00 +13°C° 0 mm 1 mps 619 mmHg 57%
    12:00 +13°C° 0 mm 2 mps 619 mmHg 53%
    13:00 +14°C° 0 mm 2 mps 618 mmHg 50%
    14:00 +14°C° 0 mm 2 mps 618 mmHg 49%
    15:00 +14°C° 0 mm 2 mps 618 mmHg 48%
    16:00 +14°C° 0 mm 2 mps 619 mmHg 47%
    17:00 +13°C° 0 mm 1 mps 619 mmHg 50%
    18:00 +12°C° 0 mm 1 mps 619 mmHg 53%
    19:00 +11°C° 0 mm 0 mps 619 mmHg 57%
    20:00 +11°C° 0 mm 1 mps 619 mmHg 58%
    21:00 +11°C° 0 mm 1 mps 619 mmHg 59%
    22:00 +11°C° 0 mm 1 mps 619 mmHg 60%
    23:00 +10°C° 0 mm 1 mps 619 mmHg 61%
    Mostrar más